Flag for Czech Republic Weather past 2 weeks in Brno, Czech Republic

Now
37 °F

Overcast.


Feels Like: 32 °F
Forecast: 31 / 44 °F
Wind: 7 mph from Southwest

Location: Brno / Turany

Current Time: Apr 2, 2015 at 10:29:17 AM

Latest Report: Apr 2, 2015 at 9:00 AM


Visibility: 25 mi

Pressure: 29.83 "Hg

Humidity: 81%

Dew point: 31 °F

Location of BrnoLocation

Historic Weather in Brno — Graph

°F

Brno temperature yesterday

Maximum temperature yesterday: 46 °F (at 1:00 PM)
Minimum temperature yesterday: 37 °F (at 10:00 PM)
Average temperature yesterday: 41 °F

Past Weeks' High & Low Weather Summary

 TemperatureHumidityPressure
High62 °F (Mar 25, 1:00 PM)97% (Apr 2, 1:00 AM)30.41 "Hg (Apr 2, 1:00 AM)
Low28 °F (Mar 23, 5:00 AM)29% (Mar 19, 3:00 PM)29.35 "Hg (Mar 31, 3:00 PM)
Average45 °F63%29.95 "Hg
* Reported Mar 18 8:00 AM — Apr 2 9:00 AM, Brno, Weather by CustomWeather, © 2015

Note: Actual official high and low records may vary slightly from our data, if they occured in-between our weather recording intervals... More about our weather records

Advertising

Brno weather history for previous 24 hours

 ConditionsComfort  
Time TempWeatherWind HumidityBarometerVisibility
9:00 AM
Thu, Apr 2
37 °FOvercast.7 mph81%29.83 "Hg25 mi
8:00 AM34 °FLight snow. Overcast.5 mph88%29.86 "Hg25 mi
7:00 AM33 °FLight snow. Overcast.3 mph85%29.90 "Hg4 mi
6:00 AM32 °FPassing clouds.3 mph84%29.93 "Hg28 mi
5:00 AM34 °FPassing clouds.3 mph76%29.95 "Hg31 mi
4:00 AM35 °FPassing clouds.5 mph74%29.96 "Hg19 mi
3:00 AM36 °FLow clouds.5 mph79%29.97 "Hg12 mi
2:00 AM35 °FSnow flurries. Low clouds.5 mph89%29.97 "Hg6 mi
1:00 AM33 °FPassing clouds.1 mph97%29.97 "Hg7 mi
12:00 AM33 °FPassing clouds.2 mph95%29.96 "Hg4 mi
10:00 PM
Wed, Apr 1
37 °FOvercast.3 mph75%29.96 "Hg37 mi
9:00 PM38 °FPassing clouds.6 mph66%29.94 "Hg37 mi
8:00 PM38 °FPassing clouds.8 mph64%29.93 "Hg31 mi
7:00 PM40 °FLow clouds.12 mph60%29.91 "Hg25 mi
6:00 PM41 °FSprinkles. Low clouds.7 mph73%29.88 "Hg19 mi
5:00 PM42 °FOvercast.9 mph66%29.86 "Hg25 mi
4:00 PM40 °FPartly sunny.7 mph71%29.84 "Hg31 mi
3:00 PM41 °FOvercast.9 mph72%29.84 "Hg22 mi
2:00 PM38 °FOvercast.12 mph77%29.84 "Hg22 mi
1:00 PM46 °FPartly sunny.13 mph40%29.80 "Hg43 mi
12:00 PM44 °FPartly sunny.12 mph44%29.80 "Hg43 mi
11:00 AM44 °FPartly sunny.16 mph42%29.78 "Hg43 mi
10:00 AM42 °FPartly sunny.12 mph49%29.78 "Hg43 mi
Weather by CustomWeather, © 2015

See weather overviewHow to use our weather pages